Location: Dumpton Point
(51.3500°N, 1.4433°E)
Time: 11:17:32
(UTC+00:00)

A-11 Canister half - Visible Passes

Search period start: 27 September 2022 00:00
Search period end: 07 October 2022 00:00
Orbit: 1515 x 1684 km, 47.2° (Epoch: 27 September)

Date Brightness Start Highest point End Pass type
(mag) Time Alt. Az. Time Alt. Az. Time Alt. Az.
27 Sep 8.8 02:12:09 65° SSW 02:12:20 65° SSW 02:21:26 10° ESE visible
27 Sep 9.4 04:10:23 19° W 04:16:11 38° SW 04:24:26 10° SSE visible
27 Sep 10.6 23:52:41 16° E 23:52:41 16° E 23:54:09 10° E visible
28 Sep 9.0 01:50:56 59° SSE 01:50:56 59° SSE 01:58:33 10° ESE visible
28 Sep 9.3 03:49:10 27° W 03:53:21 40° SW 04:01:41 10° SSE visible
28 Sep 10.8 21:09:56 10° SSW 21:10:26 12° SSW 21:10:26 12° SSW visible
29 Sep 9.5 01:29:49 43° SE 01:29:49 43° SE 01:35:41 10° ESE visible
29 Sep 9.2 03:28:04 35° WSW 03:30:31 41° SSW 03:38:55 10° SSE visible
29 Sep 10.4 20:47:11 10° SSW 20:49:48 19° SSW 20:49:48 19° SSW visible
29 Sep11.323:10:36E23:10:36E22:48:05WSWvisible
30 Sep 10.0 01:08:52 29° ESE 01:08:52 29° ESE 01:12:48 10° ESE visible
30 Sep 9.1 03:07:07 42° SW 03:07:40 43° SSW 03:16:10 10° SE visible
30 Sep 10.2 05:05:39 10° W 05:10:31 16° SW 05:15:24 10° SSW visible
30 Sep 10.0 20:24:27 10° SSW 20:29:04 25° S 20:29:04 25° S visible
30 Sep 10.9 22:27:01 10° WSW 22:27:20 11° WSW 22:27:20 11° WSW visible
01 Oct 10.5 00:48:01 18° ESE 00:48:01 18° ESE 00:49:55 10° ESE visible
01 Oct 9.3 02:46:17 42° S 02:46:17 42° S 02:53:22 10° SE visible
01 Oct 10.1 04:44:33 14° WSW 04:47:45 17° SW 04:53:02 10° SSW visible
01 Oct 9.7 20:01:44 10° SSW 20:08:13 30° SSE 20:08:13 30° SSE visible
01 Oct 10.5 22:04:07 10° WSW 22:06:28 20° SW 22:06:28 20° SW visible
02 Oct 9.7 02:25:34 33° SSE 02:25:34 33° SSE 02:30:35 10° SE visible
02 Oct 10.0 04:23:51 18° WSW 04:24:58 18° SW 04:30:37 10° SSW visible
02 Oct 9.6 19:39:02 10° SSW 19:46:58 30° SE 19:47:13 30° SE visible
02 Oct 10.0 21:41:15 10° SW 21:45:28 29° SW 21:45:28 29° SW visible
03 Oct11.300:06:39ESE00:06:39ESE23:43:43Wvisible
03 Oct 10.2 02:04:56 22° SSE 02:04:56 22° SSE 02:07:48 10° SE visible
03 Oct 10.0 04:03:14 19° SW 04:03:14 19° SW 04:08:09 10° S visible
03 Oct 9.7 19:16:20 10° S 19:24:08 28° SE 19:26:06 26° ESE visible
03 Oct 9.6 21:18:21 10° SW 21:24:20 40° SSW 21:24:20 40° SSW visible
04 Oct 10.8 01:44:23 12° SE 01:44:23 12° SE 01:45:01 10° SE visible
04 Oct 10.2 03:42:40 17° SSW 03:42:40 17° SSW 03:45:40 10° S visible
04 Oct 9.8 18:53:40 10° S 19:01:19 27° SE 19:04:51 21° ESE visible
04 Oct 9.2 20:55:28 10° SW 21:03:04 50° SSW 21:03:04 50° SSW visible
04 Oct 10.7 22:59:42 10° W 23:01:18 16° W 23:01:18 16° W visible
05 Oct 10.5 03:22:08 13° S 03:22:08 13° S 03:23:08 10° S visible
05 Oct 9.9 18:31:01 10° S 18:38:28 25° SE 18:43:29 17° E visible
05 Oct 9.0 20:32:35 10° SW 20:41:42 54° SSE 20:41:42 54° SSE visible
05 Oct 10.3 22:36:45 10° W 22:39:54 24° WSW 22:39:54 24° WSW visible
06 Oct 10.0 18:08:24 10° S 18:15:39 24° SE 18:22:01 12° E visible
06 Oct 9.0 20:09:43 10° SW 20:19:03 53° SSE 20:20:14 50° SE visible
06 Oct 10.0 22:13:49 10° W 22:18:26 33° WSW 22:18:26 33° WSW visible
